Regional Weather Roundup
Issued by NWS Upton, NY

Current Version | Previous Version | Text Only | Print | Product List | Glossary On
Versions: 1 2 3 4 5 6 7 8 9 10 11 12 13 14 15 16 17 18 19 20 21 22 23 24 25 26 27
000
ASUS41 KOKX 210109
RWROKX

REGIONAL WEATHER ROUNDUP
NATIONAL WEATHER SERVICE NEW YORK NY
900 PM EDT WED SEP 20 2017

NOTE: "FAIR" INDICATES FEW OR NO CLOUDS BELOW 12,000 FEET WITH NO
SIGNIFICANT WEATHER AND/OR OBSTRUCTIONS TO VISIBILITY.

NYZ071-072-176-178-NJZ106-104-210200-
NEW YORK CITY METRO AREA

CITY           SKY/WX    TMP DP  RH WIND       PRES   REMARKS
Central Park   CLOUDY    76  63  64 VRB5      29.95R
Bronx Bot Gard   N/A     73  63  68 N3        29.94R
LaGuardia APRT CLOUDY    77  64  64 N10       29.91R
Kennedy INTL   CLOUDY    76  64  66 N10       29.92R
Breezy Point     N/A     75 N/A N/A N8          N/A
Newark/Liberty CLOUDY    77  63  61 N10       29.92R
Teterboro      CLOUDY    76  64  66 N6        29.91R
$$

NYZ177-179-078>081-210200-
LONG ISLAND NEW YORK

CITY           SKY/WX    TMP DP  RH WIND       PRES   REMARKS
Jones Beach      N/A     75 N/A N/A N15         N/A
Matinecock PT    N/A     73 N/A N/A N12         N/A
Farmingdale    MOCLDY    75  63  66 N12       29.90R
MacArthur/ISP  CLOUDY    75  64  68 N16G23    29.88R
Shirley        CLOUDY    76  66  71 N10       29.89R
Mt Sinai Harb    N/A    N/A N/A N/A N13         N/A
Westhampton    CLOUDY    73  64  73 N12G21    29.88S
East Hampton   CLOUDY    71  65  81 N14G30    29.85S
Montauk          N/A     71  67  87 N12G23    29.84S
$$

NYZ052-065-067-210200-
HUDSON VALLEY

CITY           SKY/WX    TMP DP  RH WIND       PRES   REMARKS
White Plains   CLOUDY    72  64  76 NW7       29.92R
Larchmont Harb   N/A     73 N/A N/A NW7         N/A
Croton On Huds   N/A     73 N/A N/A NW1         N/A
Newburgh       MOCLDY    73  64  73 NE9       29.96R
Montgomery     MOCLDY    70  64  81 N5        29.95R
Poughkeepsie   MOCLDY    71  63  75 CALM      29.93R
Albany         CLOUDY    71  63  75 N5        29.98R
$$

NJZ001-105-106-008-010-013-015-019>022-104-210200-
NEW JERSEY

CITY           SKY/WX    TMP DP  RH WIND       PRES   REMARKS
Newark/Liberty CLOUDY    77  63  61 N10       29.92R
Teterboro      CLOUDY    76  64  66 N6        29.91R
Caldwell       CLOUDY    71  67  87 CALM      29.94R
Somerville     NOT AVBL
Linden         FAIR      76  63  62 N5        29.93R
Perth Amboy      N/A     77 N/A N/A N8          N/A
Sussex         PTCLDY    67  66  97 CALM      29.96R
Andover          N/A     67  66  97 CALM      29.97R
Trenton        PTCLDY    73  67  81 N5        29.93R
Millville      CLOUDY    74  70  87 CALM      29.93R
Atlantic City  CLOUDY    74  67  78 N5        29.92S
Wrightstown    CLOUDY    70  64  79 N3        29.90R
Toms River     PTCLDY    72  65  78 N5        29.93R
Belmar         PTCLDY    72  65  78 NW5       29.94R
$$

PAZ047>061-062-071-210200-
EASTERN PENNSYLVANIA

CITY           SKY/WX    TMP DP  RH WIND       PRES   REMARKS
Philadelphia   PTCLDY    79  64  60 VRB3      29.93R
Allentown      MOCLDY    73  62  68 NW3       29.95R
Scranton       CLEAR     71  62  73 E5        29.99R
$$

CTZ002-004>006-009-010-012-RIZ004-006-007-MAZ004-011-015-210200-
SOUTHERN NEW ENGLAND
 IN CT

CITY           SKY/WX    TMP DP  RH WIND       PRES   REMARKS
Bradley INTL   CLOUDY    72  65  78 N14       29.93R
Hartford       CLOUDY    74  65  73 N14       29.91R
Danbury        CLOUDY    73  65  75 N6        29.94S
Wtrbury/Oxford CLOUDY    71  63  75 N13       29.94R
Norwalk Harbor   N/A     73 N/A N/A N9          N/A
Bridgeport     CLOUDY    75  63  66 N14G20    29.89S
Meriden        CLOUDY    74  63  68 N12       29.91R
New Haven      MOCLDY    75  64  68 N20G29    29.89R
Chester        CLOUDY    73  66  78 N12G20    29.90R
Groton         CLOUDY    72  65  78 N14G22    29.84S
Wilimantic     CLOUDY    72  66  81 N12       29.89S

 IN RI

CITY           SKY/WX    TMP DP  RH WIND       PRES   REMARKS
Providence     CLOUDY    70  68  93 N14       29.85F
Block Island   CLOUDY    69  66  90 N21G32    29.81S
Westerly       CLOUDY    72  66  81 N15G23    29.84S
 IN MA

CITY           SKY/WX    TMP DP  RH WIND       PRES   REMARKS
Boston         CLOUDY    71  67  87 N13       29.87F
Worcester      CLOUDY    67  63  87 N12G21    29.94R
Westfield      CLOUDY    73  65  75 NE9       29.94R
Provincetown   CLOUDY    64  63  96 NE22G29   29.81S
Nantucket      HVY RAIN  66  66 100 N33G45    29.66S FOG
$$

ANZ330-335-338-340-345-350-353-355-210200-
COASTAL MARINE OBSERVATIONS


STATION/POSITION TIME  SKY/WX   TEMP    WIND        PRES    VSBY  WAVE
                                AIR SEA DIR/SP/G                  HT/PER
                 (UTC)          (F)     (DEG/KT/KT) (MB)    (MI)  (FT/S)
NY HARB ENTRANCE 2350            74 70  330/ 10/ 12 1011.3          6/ 9
20 S FIRE ISLAND 2350            72 68  350/ 14/ 16 1010.9          7/10
GREAT SOUTH BAY  0030            75 71   10/ 16/ 19   N/A
23 SSW MONTAUK P 2350            69 66              1009.3          8/11
15 E BARNEGAT LI 0030               69                N/A           7/11
HUDSON CANYON    2350            71 69  350/ 21/ 25 1008.6         11/10
KINGS POINT      0030            74 71   30/ 10/ 11 1013.5
EXECUTION ROCKS  0045            75      10/ 10/ 12   N/A
WESTERN LI SOUND NOT AVBL
CENTRAL LI SOUND 0045            73      20/ 16/ 19   N/A           2
EASTERN LI SOUND NOT AVBL
ROBBINS REEF     0030            77     330/  6/  8 1013.7
$$


>>>>>>>>>>>>>>>>>>>>>>>>>>>> KEY <<<<<<<<<<<<<<<<<<<<<<<<<<<
>                                                          <
>     SKY/WX - Sky Condition/Present Weather               <
>     TMP    - Temperature in Fahrenheit                   <
>     DP     - Dew Point in Fahrenheit                     <
>     RH     - Relative Humidity in Percent                <
>     WIND   - Direction (from) and Speed in MPH           <
>     PRES   - Mean Sea Level Pressure (inches of Hg)      <
>     WCI    - Wind Chill Index                            <
>     VSB    - VISIBILITY IN MILES                         <
>     HX     - HEAT INDEX                                  <
>     TC     - TEMPERATURE IN CELSIUS                      <
>     VRB    - VARIABLE WIND DIRECTION                     <
>                                                          <
>>>>>>>>>>>>>>>>>>>>>>>>>>>> KEY <<<<<<<<<<<<<<<<<<<<<<<<<<<




USA.gov is the U.S. government's official web portal to all federal, state and local government web resources and services.